• In Hungary
  • List of Countries
  • For 7 days
  • Water Temperature
  • Satellite Maps
  • Weather Map
  • News
  • Weather Widgets
  • user-avatar
    Login

    Hourly Weather Starzynka

    Today, 24 September, Monday

    Time Temperature Precipitation Wind Pressure Humidity
    00:00 +11°C° 2.4 mm 4 mps 741 mmHg 89%
    01:00 +9°C° 2.4 mm 5 mps 740 mmHg 90%
    02:00 +10°C° 0 mm 5 mps 738 mmHg 94%
    03:00 +10°C° 2.1 mm 5 mps 737 mmHg 93%
    04:00 +11°C° 2.1 mm 6 mps 737 mmHg 93%
    05:00 +11°C° 2.1 mm 7 mps 737 mmHg 92%
    06:00 +10°C° 0.6 mm 8 mps 738 mmHg 90%
    07:00 +9°C° 0.6 mm 8 mps 739 mmHg 88%
    08:00 +7°C° 0 mm 10 mps 740 mmHg 85%
    09:00 +7°C° 0.1 mm 10 mps 741 mmHg 83%
    10:00 +8°C° 0.1 mm 9 mps 743 mmHg 80%
    11:00 +8°C° 0.1 mm 9 mps 744 mmHg 78%
    12:00 +10°C° 0.3 mm 9 mps 745 mmHg 75%
    13:00 +10°C° 0.3 mm 9 mps 745 mmHg 71%
    14:00 +11°C° 0.3 mm 9 mps 746 mmHg 68%
    15:00 +11°C° 0.2 mm 9 mps 746 mmHg 68%
    16:00 +10°C° 0.2 mm 8 mps 747 mmHg 68%
    17:00 +10°C° 0.2 mm 7 mps 747 mmHg 68%
    18:00 +9°C° 0.1 mm 7 mps 747 mmHg 71%
    19:00 +9°C° 0.1 mm 6 mps 748 mmHg 73%
    20:00 +8°C° 0.1 mm 6 mps 748 mmHg 76%
    21:00 +7°C° 0 mm 6 mps 749 mmHg 76%
    22:00 +7°C° 0 mm 6 mps 750 mmHg 77%
    23:00 +5°C° 0 mm 6 mps 750 mmHg 78%

    Tomorrow, 25 September, Tuesday

    Time Temperature Precipitation Wind Pressure Humidity
    00:00 +5°C° 0 mm 6 mps 751 mmHg 78%
    01:00 +5°C° 0 mm 6 mps 751 mmHg 79%
    02:00 +4°C° 0 mm 6 mps 752 mmHg 80%
    03:00 +4°C° 0 mm 6 mps 752 mmHg 80%
    04:00 +5°C° 0 mm 5 mps 753 mmHg 80%
    05:00 +5°C° 0 mm 5 mps 753 mmHg 81%
    06:00 +4°C° 0 mm 6 mps 754 mmHg 78%
    07:00 +5°C° 0 mm 6 mps 755 mmHg 76%
    08:00 +5°C° 0 mm 6 mps 755 mmHg 73%
    09:00 +6°C° 0 mm 7 mps 756 mmHg 68%
    10:00 +9°C° 0 mm 7 mps 756 mmHg 62%
    11:00 +10°C° 0 mm 7 mps 757 mmHg 56%
    12:00 +10°C° 0.2 mm 7 mps 757 mmHg 55%
    13:00 +10°C° 0.2 mm 7 mps 757 mmHg 54%
    14:00 +11°C° 0.2 mm 7 mps 758 mmHg 54%
    15:00 +10°C° 0.1 mm 7 mps 758 mmHg 55%
    16:00 +10°C° 0.1 mm 7 mps 759 mmHg 57%
    17:00 +9°C° 0.1 mm 6 mps 759 mmHg 59%
    18:00 +8°C° 0 mm 5 mps 760 mmHg 62%
    19:00 +7°C° 0 mm 5 mps 760 mmHg 66%
    20:00 +6°C° 0 mm 4 mps 761 mmHg 70%
    21:00 +6°C° 0 mm 4 mps 762 mmHg 71%
    22:00 +6°C° 0 mm 4 mps 762 mmHg 72%
    23:00 +5°C° 0 mm 4 mps 763 mmHg 73%

    Day after tomorrow, 26 September, Wednesday

    Time Temperature Precipitation Wind Pressure Humidity
    00:00 +5°C° 0 mm 4 mps 763 mmHg 75%
    01:00 +4°C° 0 mm 3 mps 764 mmHg 78%
    02:00 +4°C° 0 mm 3 mps 764 mmHg 80%
    03:00 +3°C° 0 mm 3 mps 764 mmHg 81%
    04:00 +3°C° 0 mm 3 mps 764 mmHg 82%
    05:00 +4°C° 0 mm 2 mps 764 mmHg 83%
    06:00 +4°C° 0 mm 3 mps 764 mmHg 78%
    07:00 +4°C° 0 mm 3 mps 764 mmHg 74%
    08:00 +5°C° 0 mm 3 mps 765 mmHg 69%
    09:00 +7°C° 0 mm 4 mps 764 mmHg 63%
    10:00 +10°C° 0 mm 4 mps 764 mmHg 57%
    11:00 +10°C° 0 mm 5 mps 764 mmHg 51%
    12:00 +11°C° 0 mm 6 mps 763 mmHg 50%
    13:00 +13°C° 0 mm 6 mps 763 mmHg 49%
    14:00 +13°C° 0 mm 6 mps 762 mmHg 48%
    15:00 +13°C° 0 mm 6 mps 762 mmHg 50%
    16:00 +12°C° 0 mm 5 mps 761 mmHg 52%
    17:00 +12°C° 0 mm 5 mps 760 mmHg 54%
    18:00 +12°C° 0 mm 5 mps 760 mmHg 55%
    19:00 +10°C° 0 mm 5 mps 760 mmHg 56%
    20:00 +10°C° 0 mm 6 mps 760 mmHg 56%
    21:00 +10°C° 0 mm 6 mps 759 mmHg 57%
    22:00 +10°C° 0 mm 6 mps 759 mmHg 57%
    23:00 +10°C° 0 mm 6 mps 758 mmHg 57%

    27 September, Thursday

    Time Temperature Precipitation Wind Pressure Humidity
    00:00 +10°C° 0 mm 6 mps 758 mmHg 56%
    01:00 +10°C° 0 mm 7 mps 757 mmHg 56%
    02:00 +11°C° 0 mm 7 mps 757 mmHg 55%
    03:00 +11°C° 0 mm 7 mps 756 mmHg 55%
    04:00 +11°C° 0 mm 7 mps 756 mmHg 55%
    05:00 +10°C° 0 mm 7 mps 755 mmHg 55%
    06:00 +10°C° 0 mm 7 mps 755 mmHg 57%
    07:00 +10°C° 0 mm 7 mps 755 mmHg 60%
    08:00 +11°C° 0 mm 7 mps 755 mmHg 62%
    09:00 +12°C° 0 mm 8 mps 755 mmHg 62%
    10:00 +13°C° 0 mm 8 mps 755 mmHg 62%
    11:00 +16°C° 0 mm 8 mps 755 mmHg 62%
    12:00 +17°C° 0 mm 8 mps 755 mmHg 61%
    13:00 +17°C° 0 mm 8 mps 755 mmHg 61%
    14:00 +18°C° 0 mm 8 mps 755 mmHg 60%
    15:00 +18°C° 0 mm 7 mps 754 mmHg 63%
    16:00 +18°C° 0 mm 7 mps 754 mmHg 65%
    17:00 +17°C° 0 mm 6 mps 754 mmHg 67%
    18:00 +16°C° 0 mm 6 mps 754 mmHg 70%
    19:00 +16°C° 0 mm 5 mps 754 mmHg 73%
    20:00 +15°C° 0 mm 5 mps 754 mmHg 76%
    21:00 +14°C° 0 mm 5 mps 754 mmHg 79%
    22:00 +14°C° 0 mm 5 mps 754 mmHg 81%
    23:00 +14°C° 0 mm 5 mps 754 mmHg 83%

    28 September, Friday

    Time Temperature Precipitation Wind Pressure Humidity
    00:00 +13°C° 0 mm 4 mps 754 mmHg 85%
    01:00 +13°C° 0 mm 4 mps 754 mmHg 87%
    02:00 +12°C° 0 mm 4 mps 754 mmHg 89%
    03:00 +12°C° 0 mm 4 mps 753 mmHg 90%
    04:00 +13°C° 0 mm 5 mps 753 mmHg 91%
    05:00 +13°C° 0 mm 5 mps 752 mmHg 91%
    06:00 +13°C° 0 mm 5 mps 752 mmHg 89%
    07:00 +14°C° 0 mm 6 mps 752 mmHg 86%
    08:00 +14°C° 0 mm 6 mps 751 mmHg 83%
    09:00 +15°C° 0 mm 6 mps 751 mmHg 78%
    10:00 +17°C° 0 mm 6 mps 751 mmHg 74%
    11:00 +19°C° 0 mm 6 mps 751 mmHg 69%
    12:00 +19°C° 0 mm 6 mps 751 mmHg 69%
    13:00 +19°C° 0 mm 6 mps 751 mmHg 68%
    14:00 +19°C° 0 mm 5 mps 751 mmHg 68%
    15:00 +17°C° 0 mm 5 mps 751 mmHg 67%
    16:00 +17°C° 0 mm 5 mps 751 mmHg 67%
    17:00 +18°C° 0 mm 4 mps 751 mmHg 67%
    18:00 +15°C° 0 mm 4 mps 751 mmHg 69%
    19:00 +14°C° 0 mm 4 mps 751 mmHg 72%
    20:00 +13°C° 0 mm 3 mps 752 mmHg 74%
    21:00 +12°C° 0 mm 3 mps 752 mmHg 73%
    22:00 +11°C° 0 mm 3 mps 752 mmHg 72%
    23:00 +10°C° 0 mm 3 mps 752 mmHg 70%

    29 September, Saturday

    Time Temperature Precipitation Wind Pressure Humidity
    00:00 +10°C° 0 mm 3 mps 753 mmHg 71%
    01:00 +10°C° 0 mm 3 mps 753 mmHg 72%
    02:00 +10°C° 0 mm 3 mps 753 mmHg 72%
    03:00 +9°C° 0.1 mm 2 mps 753 mmHg 74%
    04:00 +9°C° 0.1 mm 2 mps 753 mmHg 76%
    05:00 +9°C° 0.1 mm 2 mps 754 mmHg 78%
    06:00 +8°C° 0.1 mm 2 mps 754 mmHg 78%
    07:00 +8°C° 0.1 mm 3 mps 755 mmHg 78%
    08:00 +8°C° 0.1 mm 3 mps 755 mmHg 78%
    09:00 +8°C° 0 mm 4 mps 756 mmHg 70%
    10:00 +10°C° 0 mm 4 mps 756 mmHg 62%
    11:00 +11°C° 0 mm 4 mps 756 mmHg 54%
    12:00 +12°C° 0 mm 4 mps 757 mmHg 50%
    13:00 +12°C° 0 mm 4 mps 757 mmHg 46%
    14:00 +12°C° 0 mm 4 mps 757 mmHg 42%
    15:00 +12°C° 0 mm 4 mps 757 mmHg 44%
    16:00 +12°C° 0 mm 3 mps 757 mmHg 45%
    17:00 +11°C° 0 mm 3 mps 757 mmHg 47%
    18:00 +10°C° 0 mm 3 mps 758 mmHg 50%
    19:00 +9°C° 0 mm 2 mps 758 mmHg 54%
    20:00 +7°C° 0 mm 2 mps 759 mmHg 58%
    21:00 +8°C° 0 mm 1 mps 759 mmHg 59%
    22:00 +8°C° 0 mm 1 mps 759 mmHg 61%
    23:00 +7°C° 0 mm 1 mps 760 mmHg 63%
    Show more